Preview of NWS' New Version of Forecast
This preview is not operational and should not be used for support decisions.
Latest weather observations around

Houston Intercontinental Airport (KIAH)

Using English Units (Switch to International System of Units)
Date/ Time (CST) Wind (mph) Vis. (mi) Weather Sky Cond. Temp (°F) Rel. Humidity Wind Chill (°F) Heat Index (°F) Pressure Precip. (in)
Air Dwpt 6 hour Altimeter (inHg) Sea level (inHg) 1 hr 3 hr 6 hr
Max Min
Feb 19 08:53 NE 11 6 Fog/Mist BKN008 OVC013 46 45     96% 41   30.04 30.04 0 0  
Feb 19 07:53 NE 14 5 Fog/Mist BKN008 OVC014 46 44     93% 40   30.05 30.04 0    
Feb 19 07:38 NE 10 4 Rain and Fog/Mist BKN009 OVC014 46 44     93% 41   30.05   0    
Feb 19 07:04 ENE 11 5 Heavy Rain and Fog/Mist BKN011 OVC025 46 44     93% 41   30.04   0    
Feb 19 06:53 ENE 15 10 Light Rain BKN012 OVC025 46 45     96% 40   30.05 30.05 0    
Feb 19 06:36 E 15 10 Clear   47 44     90% 41   30.05   0    
Feb 19 05:53   10 Clear   48 41     77%     30.05 30.05 0    
Feb 19 04:53 ENE 15 10 Cloudy OVC024 49 37     63% 43   30.08 30.08      
Feb 19 03:53 ENE 15 10 Cloudy OVC027 50 37     61%     30.09 30.09      
Feb 19 03:37 NE 13 10 Cloudy OVC028 50 37     61%     30.1        
Feb 19 02:53 NNE 10 10 Cloudy OVC030 50 36     58%     30.11 30.11      
Feb 19 01:53 NE 11 10 Cloudy OVC031 50 36     58%     30.12 30.12      
Feb 19 00:53 NE 10 10 Cloudy OVC032 50 35     56%     30.14 30.14      
Feb 19 00:08 NE 11 10 Cloudy OVC027 50 35     56%     30.15        
Feb 18 23:53 NE 14 10 Cloudy OVC032 50 35     56%     30.15 30.15      
Feb 18 22:53 NE 13 10 Cloudy BKN032 OVC095 51 35     54%     30.17 30.17      
Feb 18 22:40 NE 15 10 Cloudy BKN033 OVC095 51 35     54%     30.17        
Feb 18 21:53 NE 14 10 Mostly Cloudy FEW080 BKN095 BKN250 52 35     52%     30.17 30.17      
Feb 18 20:53 NE 14 10 Mostly Cloudy SCT090 BKN250 53 35     50%     30.16 30.16      
Feb 18 19:53 NE 14 10 Mostly Cloudy SCT090 BKN250 56 36     47%     30.15 30.15      
Feb 18 18:53 NNE 11 10 Mostly Cloudy FEW140 BKN250 57 37     47%     30.12 30.13      
Feb 18 17:53 NE 15 10 Mostly Cloudy FEW140 BKN250 59 37     44%     30.12 30.12      
Feb 18 16:53 NE 14 10 Mostly Cloudy FEW080 FEW140 BKN250 63 35     35%     30.12 30.11      
Feb 18 15:53 ENE 13 10 Mostly Cloudy SCT080 SCT140 BKN250 64 37     37%     30.11 30.11      
Feb 18 14:53 NE 17 10 Mostly Cloudy SCT080 SCT140 BKN250 65 36     34%     30.11 30.11      
Feb 18 13:53 NNE 15 10 Mostly Cloudy BKN080 BKN140 BKN250 65 35     33%     30.12 30.12      
Feb 18 12:53 ENE 17 10 Mostly Cloudy FEW080 BKN140 BKN250 64 35     34%     30.14 30.14      
Feb 18 11:53 NE 16 10 Mostly Cloudy FEW085 BKN130 BKN250 61 36     39%     30.16 30.16      
Feb 18 10:53   10 Mostly Cloudy FEW075 BKN130 BKN250 57 34     42%     30.18 30.19      
Feb 18 09:53 ENE 20 10 Mostly Cloudy and Windy FEW065 BKN140 BKN250 53 36     52%     30.19 30.19      
Feb 18 08:53 NE 18 10 Mostly Cloudy FEW065 BKN160 BKN250 50 37     61%     30.18 30.18      
Feb 18 07:53 NE 15 10 Mostly Cloudy FEW065 BKN170 BKN250 48 37     66% 42   30.16 30.16      
Feb 18 06:53 NE 11 10 Mostly Cloudy FEW065 BKN170 BKN250 46 37     71% 41   30.13 30.13      
Feb 18 05:53 NNE 14 10 Mostly Cloudy FEW070 BKN160 BKN250 47 36     65% 41   30.11 30.11      
Feb 18 04:53 NNE 13 10 Mostly Cloudy FEW070 BKN160 BKN250 47 37     68% 41   30.09 30.09      
Feb 18 03:53 NNE 9 10 Mostly Cloudy SCT150 BKN220 46 37     71% 41   30.08 30.08      
Feb 18 02:53 N 14 10 Clear   46 38     73% 40   30.07 30.07      
Feb 18 01:53 NNE 11 10 Partly Cloudy FEW055 SCT230 47 39     74% 42   30.09 30.09      
Feb 18 00:53 N 11 10 Partly Cloudy SCT230 48 40     73% 43   30.07 30.07      
Feb 17 23:53 NNE 13 10 Partly Cloudy SCT250 50 40     68%     30.04 30.03      
Feb 17 22:53 NNE 11 10 Partly Cloudy SCT250 50 40     68%     29.99 29.99      
Feb 17 21:53 NNE 11 10 Partly Cloudy SCT250 51 43     74%     29.98 29.98      
Feb 17 20:53 NNE 13 10 Partly Cloudy SCT250 52 44     74%     29.98 29.98      
Feb 17 19:53 N 10 10 Partly Cloudy SCT250 53 46     77%     29.96 29.96      
Feb 17 18:53 N 10 10 Partly Cloudy FEW150 SCT250 55 45     69%     29.92 29.92      
Feb 17 17:53 N 13 10 Partly Cloudy FEW080 FEW150 SCT250 59 46     62%     29.88 29.87      
Feb 17 16:53   10 Mostly Cloudy FEW080 SCT150 BKN250 62 47     58%     29.86 29.85      
Feb 17 15:53   10 Mostly Cloudy FEW020 FEW080 BKN250 62 49     62%     29.84 29.83      
Feb 17 14:53   10 Mostly Cloudy FEW022 SCT090 BKN250 62 50     65%     29.83 29.83      
Feb 17 14:41   10 Mostly Cloudy SCT020 BKN090 BKN250 60 50     69%     29.84        
Feb 17 13:53   10 Cloudy BKN016 OVC070 59 52     78%     29.83 29.83      
Feb 17 12:53 N 16 9 Cloudy OVC011 56 53     90%     29.85 29.85      
Feb 17 11:53   9 Cloudy OVC010 57 54     89%     29.85 29.84     0
Feb 17 11:23 N 14 9 Cloudy OVC010 57 55     93%     29.85        
Feb 17 10:53 N 11 8 Cloudy OVC009 59 56     90%     29.83 29.83      
Feb 17 09:53 N 11 7 Cloudy OVC008 61 59     93%     29.81 29.8      
Feb 17 09:33 N 10 7 Cloudy OVC008 61 60     97%     29.8        
Feb 17 08:53 NNW 10 2.5 Fog/Mist BKN006 OVC012 61 61     100%     29.79 29.78 0 0  
Feb 17 08:17 N 9 2.5 Fog/Mist BKN006 BKN012 OVC029 62 61     96%     29.76   0    
Feb 17 08:03 N 6 2 Light Rain and Fog/Mist FEW004 BKN015 OVC029 62 62     100%     29.76   0    
Feb 17 07:53 3 1 Light Rain and Fog/Mist FEW004 BKN015 OVC029 62 62     100%     29.75 29.75 0    
Feb 17 07:39 NNW 5 1 Light Rain and Fog/Mist FEW009 BKN015 OVC027 62 62     100%     29.75   0    
Feb 17 07:11 NW 5 2 Light Rain and Fog/Mist FEW009 SCT015 OVC025 62 62     100%     29.74   0    
Feb 17 06:53 NNW 3 2.5 Light Rain and Fog/Mist SCT007 BKN015 OVC023 61 61     100%     29.73 29.73 0    
Feb 17 06:30 NNW 6 2.5 Light Rain and Fog/Mist BKN005 OVC015 61 61     100%     29.73   0    
Feb 17 05:53 NW 13 2.5 Light Rain and Fog/Mist OVC004 65 65     100%     29.71 29.71 0   0
Feb 17 05:32 NW 9 2.5 Light Rain and Fog/Mist OVC004 66 66     100%     29.69   0    
Feb 17 04:53 WNW 6 6 Fog/Mist OVC009 70 69     97%     29.67 29.66      
Feb 17 03:53 S 10 6 Fog/Mist BKN009 OVC014 70 69     97%     29.62 29.62      
Feb 17 02:53 S 5 6 Fog/Mist BKN007 OVC012 69 67     93%     29.63 29.62      
Feb 17 01:53 SSW 3 6 Fog/Mist BKN007 OVC011 67 65     93%     29.64 29.64      
Feb 17 00:53 ESE 5 7 Cloudy BKN006 OVC010 64 62     93%     29.64 29.64      
Feb 16 23:53 ESE 3 7 Clear   63 61     93%     29.67 29.67      
Feb 16 22:53 NNE 3 7 Cloudy BKN008 OVC012 64 60     87%     29.7 29.7      
Feb 16 22:26 Calm 7 Cloudy BKN009 OVC015 63 60     90%     29.7        
Feb 16 21:53 Calm 7 Cloudy BKN010 OVC020 63 59     87%     29.7 29.7      
Feb 16 20:53 NNE 3 7 Cloudy SCT011 BKN020 OVC038 63 59     87%     29.7 29.7      
Feb 16 20:41 NE 6 7 Cloudy SCT011 BKN020 OVC038 63 58     84%     29.7        
Feb 16 19:53 NNE 5 7 Cloudy BKN013 OVC038 63 57     81%     29.69 29.69      
Feb 16 18:53 N 5 7 Cloudy BKN014 OVC040 63 57     81%     29.69 29.68      
Feb 16 18:26 N 7 7 Cloudy OVC014 63 57     81%     29.69        
Feb 16 17:53 N 6 6 Haze OVC015 63 56     78%     29.68 29.68      
Feb 16 16:53 Calm 7 Cloudy OVC015 65 56     73%     29.68 29.67      
Feb 16 15:53 N 3 7 Cloudy OVC015 64 56     75%     29.69 29.69      
Feb 16 14:53 NE 5 7 Cloudy OVC014 64 55     73%     29.7 29.7      
Feb 16 13:53 NNE 7 8 Cloudy OVC013 63 55     75%     29.73 29.72      
Feb 16 12:53 3 8 Cloudy OVC012 61 53     75%     29.78 29.77      
Feb 16 11:53 N 9 8 Cloudy OVC012 59 53     81%     29.81 29.81     0
Feb 16 10:53 N 10 8 Cloudy OVC011 57 53     87%     29.84 29.84      
Feb 16 10:04 N 7 8 Cloudy OVC011 57 54     89%     29.84        
Feb 16 09:53 N 8 8 Cloudy OVC009 57 54     89%     29.83 29.83      
May 15 10:53 SW 5 10 Mostly Cloudy FEW030 BKN180 BKN250 83 68     61%   86 29.99 29.99      
May 15 05:53 Calm 7 Fog FEW008 FEW250 66 66     100%     29.92 29.91      
May 14 16:53   10 Mostly Cloudy FEW065 BKN250 90 68     49%   94 29.91 29.91      
May 11 14:53 S 13 10 Partly Cloudy SCT050 89 65     45%   91 29.95 29.95      
Jun 10 20:53 SE 15 10 Mostly Clear FEW035 79 70     74%   82 29.89 29.89      
Jun 09 22:53 S 3 10 Mostly Cloudy FEW050 SCT180 BKN250 75 65     71%   76 29.91 29.91      
Jun 09 06:53 Calm 10 Partly Cloudy FEW070 SCT250 69 65     87%     29.91 29.91      
Jun 08 18:53 NE 8 10 Mostly Clear FEW070 FEW250 86 60     42%   86 29.86 29.86      
Jun 06 09:53 NNW 7 10 Mostly Clear FEW020 81 73     77%   86 29.78 29.78      
Jun 06 06:53 WNW 3 10 Mostly Clear FEW020 FEW070 FEW250 73 71     94%   74 29.77 29.77      
Notice The following observation data may not be complete
Jun 05 18:23   0.5 Thunderstorms and Heavy Rain and Fog/Mist SCT024 SCT042 BKN070 BKN130 BKN250          %         0